Regional Weather Roundup
Issued by NWS

Current Version | Previous Version | Text Only | Print | Product List | Glossary On
Versions: 1 2 3 4 5 6 7 8 9 10 11 12 13 14 15 16 17 18 19 20 21 22 23 24 25 26 27 28 29 30 31 32 33 34 35 36 37 38 39 40 41 42 43 44 45 46 47 48 49 50
000
ASUS44 KJAN 291710
RWRMS

MISSISSIPPI HOURLY WEATHER ROUNDUP
NATIONAL WEATHER SERVICE JACKSON MS
1200 PM CDT FRI AUG 29 2014

NOTE: "FAIR: INDICATES FEW OR NO CLOUDS BELOW 12,000 FEET WITH NO
SIGNIFICANT WEATHER AND/OR OBSTRUCTIONS TO VISIBILITY.

MSZ001>002-007>008-010>013-018>021-025>028-034>036-291800-
NORTHWEST MISSISSIPPI

CITY           SKY/WX    TMP DP  RH WIND       PRES   REMARKS
CLARKSDALE     FAIR      90  73  58 CALM      29.99S HX  98
CLEVELAND      FAIR      89  73  60 SW5       29.98S HX  96
GREENWOOD      SUNNY     89  72  56 S5        30.00R HX  96
GREENVILLE     MOSUNNY   91  72  53 SW7       29.98R HX  98
GRENADA        FAIR      88  70  55 CALM      30.01R HX  92
OLIVE BRANCH   MOSUNNY   88  70  55 S6        30.00S HX  92
OXFORD         FAIR      86  66  51 CALM      30.02S
TUNICA         SUNNY     90  70  51 SW10      29.99S HX  95
$$

MSZ003>006-009-014>017-022>024-029>033-037>039-291800-
NORTHEAST MISSISSIPPI

CITY           SKY/WX    TMP DP  RH WIND       PRES   REMARKS
BELMONT        FAIR      86  65  49 S7        30.04S
COLUMBUS AFB   MOSUNNY   89  64  44 S6        30.02S HX  90
CORINTH        FAIR      88  68  51 S8        30.01S HX  91
GOLDN TRIANGLE MOSUNNY   90  64  43 SE7       30.03S HX  91
STARKVILLE     FAIR      88  64  45 SE7       30.01F
TUPELO         MOSUNNY   88  65  46 S9        30.01S HX  90
$$

MSZ040-058-291800-
CENTRAL MISSISSIPPI

CITY           SKY/WX    TMP DP  RH WIND       PRES   REMARKS
JACKSON INTL   MOSUNNY   90  66  45 CALM      30.01S HX  92
JACKSON HAWKNS SUNNY     90  69  50 VRB7      30.01F HX  94
MERIDIAN KEY   MOSUNNY   91  63  39 VRB6      30.02F HX  92
MERIDIAN NAS   PTSUNNY   92  66  42 SE9       30.02F HX  94
RAYMOND        FAIR      90  84  84 E7        30.00S HX 115
VICKSBURG      SUNNY     90  70  51 SE9G16    29.98F HX  95
$$

MSZ059>079-291800-
SOUTH MISSISSIPPI

CITY           SKY/WX    TMP DP  RH WIND       PRES   REMARKS
BROOKHAVEN     FAIR      88  70  55 SE8       30.02S HX  92
COLUMBIA       FAIR      90  66  45 SE7G15    29.99S HX  92
HATTIESBURG    MOSUNNY   90  69  50 E8        30.00F HX  94
MCCOMB         MOSUNNY   88  67  49 SE10G17   30.00S HX  91
NATCHEZ        SUNNY     88  72  58 E6        29.98F HX  94
PINE BELT      SUNNY     90  66  45 E8        30.02F HX  92
$$

MSZ080>082-291800-
COASTAL MISSISSIPPI

CITY           SKY/WX    TMP DP  RH WIND       PRES   REMARKS
BAY ST LOUIS   MOSUNNY  N/A N/A N/A E12G17    30.00R
BILOXI         MOSUNNY   90  74  59 SE9G17    29.99S HX  99
PASCAGOULA     PTSUNNY   90  73  57 SE10      29.99S HX  98
GULFPORT       MOSUNNY   89  75  63 E17G24    29.99R HX  99
$$



USA.gov is the U.S. government's official web portal to all federal, state and local government web resources and services.